Regional Weather Roundup
Issued by NWS Goodland, KS

Home | Current Version | Previous Version | Text Only | Print | Product List | Glossary On
Versions: 1 2 3 4 5 6 7 8 9 10 11 12 13 14 15 16 17 18 19 20 21 22 23 24 25 26 27 28 29 30 31 32 33 34 35 36 37 38 39 40 41 42 43 44 45 46 47 48 49 50
000
ASUS43 KGLD 112259
RWRGLD

GOODLAND FORECAST AREA HOURLY WEATHER ROUNDUP
NATIONAL WEATHER SERVICE GOODLAND KS
500 PM MDT FRI JUL 11 2014

...OFFICIAL OBSERVATIONS...

CITY           SKY/WX    TMP DP  RH WIND       PRES   REMARKS
GOODLAND KS    SUNNY     96  52  22 S24G31    29.94F
HILL CITY KS   SUNNY     99  55  23 S18G26    29.93F
IMPERIAL NEB   SUNNY     91  69  48 NE18      29.94F
MCCOOK NEB     SUNNY     96  60  30 S15       29.89F
AKRON CO       SUNNY     89  58  34 S13       30.02F
BURLINGTON CO  SUNNY     94  54  25 S18G26    29.97F
LIMON CO       MOSUNNY   86  57  37 N8        30.09R
$$

...UNOFFICIAL OBSERVATIONS...

CITY           SKY/WX    TMP DP  RH WIND       PRES   REMARKS
COLBY KS       SUNNY     97  57  26 SE26G33   29.95S
GOVE KS          N/A     95  32  11 CALM        N/A
NORTON KS      SUNNY     99  37  12 S15G24    29.91S
SHARON SPRINGS   N/A     98  50  19 S23G32      N/A
WAKEENEY KS      N/A     97  48  18 MISG        N/A
YUMA CO          N/A     91  60  35 CALM        N/A
$$


USA.gov is the U.S. government's official web portal to all federal, state and local government web resources and services.